Location: La Fredeussais
(48.1780°N, 1.3980°W)
Time: 04:07:25
(UTC+00:00)

Meteor 1-18 Rocket - Pass Details

Date: 09 May 2021
Orbit: 836 x 909 km, 81.2° (Epoch: 13 June)

Event Time Altitude Azimuth Distance (km) Brightness Sun altitude
Exits shadow 23:27:24 58° 177° (S) 997 4.2 -23.7°
Maximum altitude 23:28:34 82° 100° (E) 869 4.1 -23.8°
Drops below altitude 10° 23:34:12 10° 13° (NNE) 2,478 7.6 -23.9°
Sets 23:36:36 0° 13° (NNE) 3,411 8.5 -24.0°
